Вернуться в каталог

STARLINK-11456

АктивенСвязьVLEO
NORAD 62064·PAYLOAD·🇺🇸 United States

Запущен Nov 24, 2024 с Vandenberg Space Force Base

Loading…

Ближайшие Пролёты (ближайшие 24 часа)

TLE

СвежийSource: CelesTrak SupGP

Эпоха: Sep 14, 2026, 21:17 UTC

1 62064C 24217H   26257.88729167  .00051059  00000+0  42038-3 0  2570
2 62064  53.1578 218.4265 0001325 101.2968 172.1067 15.69695646    17

Отслеживайте STARLINK-11456 в реальном времени с AllMySat

Download on the App Store